| time (UTC) | temp C | wind direction | speed KPH | gust KPH | rain 1hr cm | rain 24hr cm | rain mn cm | humidity % | barometer mb |
| 20260504050604 | 7 | 206 | 0.0 | 3.2 | 0.00 | 0.00 | 0.00 | 61 | 1010.0 |
| 20260504050104 | 7 | 206 | 0.0 | 4.8 | 0.00 | 0.00 | 0.00 | 61 | 1010.0 |
| 20260504045604 | 7 | 206 | 1.6 | 4.8 | 0.00 | 0.00 | 0.00 | 61 | 1010.0 |
| 20260504045104 | 7 | 207 | 1.6 | 4.8 | 0.00 | 0.00 | 0.00 | 60 | 1010.0 |
| 20260504044104 | 7 | 207 | 0.0 | 4.8 | 0.00 | 0.00 | 0.00 | 59 | 1010.0 |
| 20260504043603 | 7 | 207 | 1.6 | 4.8 | 0.00 | 0.00 | 0.00 | 59 | 1010.0 |
| 20260504042604 | 8 | 209 | 1.6 | 8.0 | 0.00 | 0.00 | 0.00 | 59 | 1010.0 |
| 20260504042103 | 8 | 209 | 0.0 | 1.6 | 0.00 | 0.00 | 0.00 | 58 | 1010.0 |
| 20260504041603 | 8 | 209 | 0.0 | 1.6 | 0.00 | 0.00 | 0.00 | 58 | 1010.0 |
| 20260504041104 | 8 | 209 | 0.0 | 3.2 | 0.00 | 0.00 | 0.00 | 57 | 1010.2 |
| 20260504040604 | 8 | 209 | 0.0 | 3.2 | 0.00 | 0.00 | 0.00 | 57 | 1010.2 |
| 20260504040103 | 8 | 209 | 0.0 | 4.8 | 0.00 | 0.00 | 0.00 | 56 | 1010.2 |
| 20260504035604 | 8 | 209 | 0.0 | 4.8 | 0.00 | 0.00 | 0.00 | 57 | 1010.2 |
| 20260504035103 | 8 | 209 | 1.6 | 8.0 | 0.00 | 0.00 | 0.00 | 56 | 1010.2 |
| 20260504034604 | 8 | 209 | 0.0 | 8.0 | 0.00 | 0.00 | 0.00 | 57 | 1010.2 |
| 20260504033604 | 9 | 210 | 0.0 | 4.8 | 0.00 | 0.00 | 0.00 | 56 | 1010.2 |
| 20260504033104 | 9 | 210 | 0.0 | 8.0 | 0.00 | 0.00 | 0.00 | 56 | 1010.2 |
| 20260504032604 | 9 | 209 | 1.6 | 8.0 | 0.00 | 0.00 | 0.00 | 56 | 1010.2 |
| 20260504031605 | 9 | 261 | 1.6 | 3.2 | 0.00 | 0.00 | 0.00 | 56 | 1010.2 |
| 20260504030605 | 10 | 261 | 0.0 | 1.6 | 0.00 | 0.00 | 0.00 | 57 | 1010.2 |
| 20260504030106 | 10 | 261 | 0.0 | 1.6 | 0.00 | 0.00 | 0.00 | 57 | 1010.2 |
| 20260504025605 | 10 | 261 | 0.0 | 3.2 | 0.00 | 0.00 | 0.00 | 56 | 1010.2 |
| 20260504025105 | 10 | 261 | 0.0 | 3.2 | 0.00 | 0.00 | 0.00 | 55 | 1010.2 |
| 20260504024605 | 10 | 261 | 0.0 | 1.6 | 0.00 | 0.00 | 0.00 | 54 | 1010.2 |
| 20260504024105 | 10 | 261 | 0.0 | 1.6 | 0.00 | 0.00 | 0.00 | 54 | 1010.2 |
| 20260504023605 | 10 | 261 | 0.0 | 3.2 | 0.00 | 0.00 | 0.00 | 53 | 1010.2 |
| 20260504023105 | 10 | 261 | 1.6 | 3.2 | 0.00 | 0.00 | 0.00 | 53 | 1010.2 |
| 20260504022605 | 10 | 261 | 0.0 | 1.6 | 0.00 | 0.00 | 0.00 | 55 | 1010.2 |
| 20260504021605 | 10 | 261 | 0.0 | 1.6 | 0.00 | 0.00 | 0.00 | 52 | 1010.2 |
| 20260504021105 | 10 | 261 | 0.0 | 0.0 | 0.00 | 0.00 | 0.00 | 53 | 1010.2 |
| 20260504020605 | 10 | 261 | 0.0 | 3.2 | 0.00 | 0.00 | 0.00 | 51 | 1010.2 |
| 20260504020105 | 11 | 261 | 0.0 | 4.8 | 0.00 | 0.00 | 0.00 | 50 | 1010.2 |
| 20260504015605 | 11 | 261 | 0.0 | 4.8 | 0.00 | 0.00 | 0.00 | 51 | 1010.2 |
| 20260504014105 | 11 | 265 | 0.0 | 4.8 | 0.00 | 0.00 | 0.00 | 51 | 1010.1 |
| 20260504013604 | 11 | 265 | 1.6 | 9.7 | 0.00 | 0.00 | 0.00 | 49 | 1010.1 |
| 20260504013105 | 11 | 265 | 3.2 | 9.7 | 0.00 | 0.00 | 0.00 | 49 | 1010.1 |
| 20260504012105 | 11 | 275 | 1.6 | 9.7 | 0.00 | 0.00 | 0.00 | 49 | 1009.8 |
| 20260504011604 | 11 | 281 | 0.0 | 1.6 | 0.00 | 0.00 | 0.00 | 48 | 1009.8 |
| 20260504011105 | 11 | 281 | 0.0 | 3.2 | 0.00 | 0.00 | 0.00 | 48 | 1009.8 |
| 20260504010605 | 11 | 281 | 0.0 | 4.8 | 0.00 | 0.00 | 0.00 | 47 | 1009.8 |
| 20260504010105 | 11 | 281 | 1.6 | 4.8 | 0.00 | 0.00 | 0.00 | 47 | 1009.8 |
| 20260504005605 | 11 | 280 | 1.6 | 16.1 | 0.00 | 0.00 | 0.00 | 47 | 1009.8 |
| 20260504004604 | 11 | 317 | 9.7 | 19.3 | 0.00 | 0.00 | 0.00 | 48 | 1009.8 |
| 20260504003605 | 11 | 325 | 3.2 | 9.7 | 0.00 | 0.00 | 0.00 | 48 | 1009.6 |
| 20260504003105 | 11 | 348 | 0.0 | 19.3 | 0.00 | 0.00 | 0.00 | 49 | 1009.6 |
| 20260504002605 | 11 | 350 | 6.4 | 19.3 | 0.00 | 0.00 | 0.00 | 48 | 1009.6 |
| 20260504002105 | 11 | 265 | 3.2 | 19.3 | 0.00 | 0.00 | 0.00 | 50 | 1009.6 |
| 20260504001105 | 11 | 257 | 1.6 | 3.2 | 0.00 | 0.00 | 0.00 | 49 | 1009.6 |
| 20260504000605 | 11 | 257 | 0.0 | 4.8 | 0.00 | 0.00 | 0.00 | 49 | 1009.4 |
| 20260503235105 | 11 | 255 | 0.0 | 4.8 | 0.00 | 0.00 | 0.00 | 48 | 1009.4 |
| 20260503234605 | 11 | 255 | 0.0 | 4.8 | 0.00 | 0.00 | 0.00 | 48 | 1009.4 |
| 20260503234105 | 11 | 255 | 1.6 | 8.0 | 0.00 | 0.00 | 0.00 | 48 | 1009.2 |
| 20260503233605 | 11 | 255 | 4.8 | 8.0 | 0.00 | 0.00 | 0.00 | 47 | 1009.2 |
| 20260503233105 | 11 | 254 | 3.2 | 4.8 | 0.00 | 0.00 | 0.00 | 49 | 1009.2 |
| 20260503232604 | 11 | 254 | 0.0 | 11.3 | 0.00 | 0.00 | 0.00 | 48 | 1009.2 |
| 20260503232105 | 12 | 254 | 0.0 | 16.1 | 0.00 | 0.00 | 0.00 | 48 | 1009.2 |
| 20260503231604 | 12 | 250 | 4.8 | 16.1 | 0.00 | 0.00 | 0.00 | 47 | 1009.2 |
| 20260503231105 | 12 | 254 | 3.2 | 16.1 | 0.00 | 0.00 | 0.00 | 49 | 1009.2 |
| 20260503230605 | 12 | 251 | 1.6 | 8.0 | 0.00 | 0.00 | 0.00 | 48 | 1009.2 |
| 20260503230104 | 12 | 244 | 3.2 | 14.5 | 0.00 | 0.00 | 0.00 | 47 | 1009.2 |
| 20260503225605 | 12 | 249 | 3.2 | 14.5 | 0.00 | 0.00 | 0.00 | 47 | 1009.2 |
| 20260503225105 | 12 | 286 | 3.2 | 14.5 | 0.00 | 0.00 | 0.00 | 47 | 1009.2 |
| 20260503224605 | 12 | 234 | 4.8 | 14.5 | 0.00 | 0.00 | 0.00 | 47 | 1009.2 |
| 20260503224105 | 12 | 277 | 1.6 | 19.3 | 0.00 | 0.00 | 0.00 | 48 | 1009.2 |
| 20260503223605 | 12 | 337 | 4.8 | 19.3 | 0.00 | 0.00 | 0.00 | 46 | 1009.2 |
| 20260503223104 | 11 | 250 | 6.4 | 19.3 | 0.00 | 0.00 | 0.00 | 48 | 1009.2 |
| 20260503222605 | 11 | 257 | 1.6 | 19.3 | 0.00 | 0.00 | 0.00 | 48 | 1009.2 |
| 20260503222105 | 11 | 254 | 9.7 | 19.3 | 0.00 | 0.00 | 0.00 | 47 | 1009.2 |
| 20260503221105 | 12 | 245 | 3.2 | 12.9 | 0.00 | 0.00 | 0.00 | 47 | 1009.2 |
| 20260503220105 | 12 | 266 | 4.8 | 19.3 | 0.00 | 0.00 | 0.00 | 46 | 1009.2 |
| 20260503215105 | 12 | 279 | 6.4 | 19.3 | 0.00 | 0.00 | 0.00 | 45 | 1009.2 |
| 20260503214605 | 12 | 272 | 8.0 | 19.3 | 0.00 | 0.00 | 0.00 | 46 | 1009.2 |
| 20260503213604 | 12 | 261 | 3.2 | 16.1 | 0.00 | 0.00 | 0.00 | 47 | 1009.2 |
| 20260503213105 | 12 | 210 | 4.8 | 19.3 | 0.00 | 0.00 | 0.00 | 45 | 1009.2 |
| 20260503212605 | 12 | 297 | 4.8 | 20.9 | 0.00 | 0.00 | 0.00 | 44 | 1009.2 |
| 20260503212105 | 12 | 247 | 14.5 | 20.9 | 0.00 | 0.00 | 0.00 | 44 | 1009.2 |
| 20260503211105 | 12 | 269 | 9.7 | 20.9 | 0.00 | 0.00 | 0.00 | 45 | 1009.2 |
| 20260503210605 | 12 | 328 | 9.7 | 19.3 | 0.00 | 0.00 | 0.00 | 44 | 1009.2 |
| 20260503210104 | 12 | 266 | 3.2 | 19.3 | 0.00 | 0.00 | 0.00 | 46 | 1009.2 |
| 20260503205604 | 12 | 273 | 3.2 | 24.1 | 0.00 | 0.00 | 0.00 | 46 | 1009.2 |
| 20260503205105 | 12 | 284 | 9.7 | 24.1 | 0.00 | 0.00 | 0.00 | 45 | 1009.9 |
| 20260503204604 | 12 | 309 | 8.0 | 24.1 | 0.00 | 0.00 | 0.00 | 46 | 1009.9 |
| 20260503204105 | 12 | 295 | 9.7 | 24.1 | 0.00 | 0.00 | 0.00 | 45 | 1009.9 |
| 20260503203605 | 12 | 325 | 4.8 | 20.9 | 0.00 | 0.00 | 0.00 | 45 | 1009.9 |
| 20260503203105 | 12 | 319 | 9.7 | 20.9 | 0.00 | 0.00 | 0.00 | 44 | 1009.9 |
| 20260503202605 | 12 | 353 | 1.6 | 20.9 | 0.00 | 0.00 | 0.00 | 46 | 1009.9 |
| 20260503202104 | 12 | 268 | 8.0 | 19.3 | 0.00 | 0.00 | 0.00 | 45 | 1009.9 |
| 20260503201604 | 12 | 269 | 4.8 | 16.1 | 0.00 | 0.00 | 0.00 | 46 | 1009.9 |
| 20260503201105 | 11 | 340 | 3.2 | 16.1 | 0.00 | 0.00 | 0.00 | 46 | 1009.9 |
| 20260503200605 | 11 | 314 | 9.7 | 19.3 | 0.00 | 0.00 | 0.00 | 46 | 1009.9 |
| 20260503195605 | 11 | 308 | 6.4 | 24.1 | 0.00 | 0.00 | 0.00 | 48 | 1009.9 |
| 20260503195105 | 11 | 264 | 8.0 | 24.1 | 0.00 | 0.00 | 0.00 | 47 | 1009.9 |
| 20260503194105 | 11 | 132 | 8.0 | 29.0 | 0.00 | 0.00 | 0.00 | 46 | 1010.5 |
| 20260503193604 | 12 | 304 | 12.9 | 35.4 | 0.00 | 0.00 | 0.00 | 44 | 1010.5 |
| 20260503193105 | 12 | 294 | 14.5 | 35.4 | 0.00 | 0.00 | 0.00 | 44 | 1010.5 |
| 20260503192605 | 12 | 300 | 8.0 | 35.4 | 0.00 | 0.00 | 0.00 | 47 | 1010.5 |
| 20260503192104 | 12 | 340 | 11.3 | 29.0 | 0.00 | 0.00 | 0.00 | 47 | 1010.5 |
| 20260503191604 | 11 | 344 | 8.0 | 29.0 | 0.00 | 0.00 | 0.00 | 47 | 1010.5 |
| 20260503191105 | 11 | 338 | 14.5 | 32.2 | 0.00 | 0.00 | 0.00 | 47 | 1010.5 |
| 20260503190605 | 11 | 289 | 11.3 | 32.2 | 0.00 | 0.00 | 0.00 | 45 | 1010.5 |
| 20260503190105 | 11 | 317 | 11.3 | 32.2 | 0.00 | 0.00 | 0.00 | 45 | 1010.5 |
| 20260503185604 | 11 | 260 | 6.4 | 25.7 | 0.00 | 0.00 | 0.00 | 45 | 1010.5 |
| 20260503185104 | 11 | 305 | 11.3 | 25.7 | 0.00 | 0.00 | 0.00 | 44 | 1010.5 |
| 20260503184105 | 11 | 292 | 4.8 | 19.3 | 0.00 | 0.00 | 0.00 | 45 | 1010.5 |
| 20260503183605 | 11 | 283 | 6.4 | 25.7 | 0.00 | 0.00 | 0.00 | 43 | 1010.5 |
| 20260503183104 | 11 | 267 | 11.3 | 32.2 | 0.00 | 0.00 | 0.00 | 43 | 1010.5 |
| 20260503182604 | 11 | 259 | 14.5 | 32.2 | 0.00 | 0.00 | 0.00 | 44 | 1010.5 |
| 20260503182104 | 11 | 260 | 19.3 | 32.2 | 0.00 | 0.00 | 0.00 | 43 | 1010.5 |
| 20260503181105 | 11 | 358 | 9.7 | 24.1 | 0.00 | 0.00 | 0.00 | 44 | 1010.5 |
| 20260503180605 | 12 | 347 | 16.1 | 24.1 | 0.00 | 0.00 | 0.00 | 40 | 1010.5 |
| 20260503175605 | 12 | 297 | 8.0 | 22.5 | 0.00 | 0.00 | 0.00 | 41 | 1010.5 |
| 20260503175105 | 12 | 8 | 4.8 | 19.3 | 0.00 | 0.00 | 0.00 | 43 | 1010.8 |
| 20260503174605 | 12 | 343 | 4.8 | 19.3 | 0.00 | 0.00 | 0.00 | 46 | 1010.8 |
| 20260503174105 | 11 | 249 | 1.6 | 22.5 | 0.00 | 0.00 | 0.00 | 46 | 1010.8 |
| 20260503173605 | 11 | 262 | 9.7 | 24.1 | 0.00 | 0.00 | 0.00 | 43 | 1010.8 |
| 20260503173104 | 11 | 296 | 11.3 | 24.1 | 0.00 | 0.00 | 0.00 | 43 | 1010.8 |
| 20260503172605 | 11 | 256 | 11.3 | 24.1 | 0.00 | 0.00 | 0.00 | 41 | 1010.8 |
| 20260503172105 | 11 | 278 | 4.8 | 24.1 | 0.00 | 0.00 | 0.00 | 42 | 1012.1 |
| 20260503171605 | 11 | 252 | 3.2 | 24.1 | 0.00 | 0.00 | 0.00 | 44 | 1012.1 |
| 20260503171105 | 11 | 304 | 8.0 | 20.9 | 0.00 | 0.00 | 0.00 | 42 | 1012.1 |
| 20260503170604 | 11 | 323 | 11.3 | 20.9 | 0.00 | 0.00 | 0.00 | 43 | 1012.1 |
| 20260503160105 | 10 | 326 | 4.8 | 22.5 | 0.00 | 0.00 | 0.00 | 53 | 1012.1 |
| 20260503150104 | 8 | 347 | 6.4 | 24.1 | 0.00 | 0.00 | 0.00 | 49 | 1012.4 |
| 20260503140105 | 7 | 307 | 9.7 | 25.7 | 0.00 | 0.00 | 0.00 | 53 | 1012.4 |
| 20260503131105 | 6 | 332 | 9.7 | 25.7 | 0.00 | 0.00 | 0.00 | 56 | 1012.4 |
| 20260503130604 | 5 | 324 | 8.0 | 35.4 | 0.00 | 0.00 | 0.00 | 56 | 1012.4 |
| 20260503130105 | 5 | 321 | 20.9 | 35.4 | 0.00 | 0.00 | 0.00 | 58 | 1012.4 |
| 20260503120104 | 2 | 300 | 3.2 | 19.3 | 0.00 | 0.00 | 0.00 | 80 | 1011.6 |
| 20260503110604 | 1 | 301 | 1.6 | 4.8 | 0.00 | 0.00 | 0.00 | 84 | 1011.6 |
| 20260503100105 | 1 | 265 | 1.6 | 11.3 | 0.00 | 0.00 | 0.00 | 82 | 1011.5 |
| 20260503090104 | 1 | 329 | 3.2 | 12.9 | 0.00 | 0.00 | 0.00 | 81 | 1011.3 |
| 20260503081604 | 1 | 322 | 0.0 | 4.8 | 0.00 | 0.00 | 0.00 | 82 | 1011.3 |
| 20260503081104 | 1 | 322 | 1.6 | 4.8 | 0.00 | 0.00 | 0.00 | 82 | 1011.3 |
| 20260503080605 | 1 | 331 | 0.0 | 4.8 | 0.00 | 0.00 | 0.00 | 82 | 1011.3 |
| 20260503080104 | 1 | 331 | 3.2 | 4.8 | 0.00 | 0.00 | 0.00 | 82 | 1011.3 |
| 20260503072605 | 1 | 335 | 0.0 | 9.7 | 0.00 | 0.00 | 0.00 | 81 | 1011.3 |
| 20260503072105 | 1 | 334 | 3.2 | 9.7 | 0.00 | 0.00 | 0.00 | 81 | 1011.3 |
| 20260503071605 | 1 | 325 | 3.2 | 12.9 | 0.00 | 0.00 | 0.00 | 82 | 1011.3 |
| 20260503071105 | 1 | 317 | 3.2 | 12.9 | 0.00 | 0.00 | 0.00 | 82 | 1011.3 |
| 20260503070104 | 1 | 332 | 1.6 | 9.7 | 0.00 | 0.00 | 0.00 | 81 | 1011.3 |
| 20260503055104 | 1 | 338 | 0.0 | 3.2 | 0.00 | 0.00 | 0.00 | 81 | 1012.2 |
| 20260503054605 | 1 | 338 | 1.6 | 4.8 | 0.00 | 0.00 | 0.00 | 80 | 1012.2 |
| 20260503054105 | 1 | 338 | 0.0 | 4.8 | 0.00 | 0.00 | 0.00 | 80 | 1012.2 |
| 20260503053605 | 1 | 338 | 0.0 | 4.8 | 0.00 | 0.00 | 0.00 | 79 | 1012.2 |
| 20260503053105 | 1 | 338 | 1.6 | 4.8 | 0.00 | 0.00 | 0.00 | 79 | 1012.2 |